This demonstration page uses our WeatherBlox Daily Observations layout. Learn more.

Left ArrowRight Arrow

Hourly Observations for May 1, 2017

Temp ( °F °C ) Dew Point ( °F °C ) Humidity (%) Winds ( mph kmh ) Pressure ( in mb ) Visibility ( mi km ) Precip ( " mm )
12:53 am 00:53 Clear 52 11.1 32 0 47 47 SE 7 11 29.85 1011 10 16 0.00 0.00
1:53 am 01:53 Clear 50 10 30 -1.1 46 46 SSE 8 13 29.85 1011 10 16 0.00 0.00
2:53 am 02:53 Clear 48 8.9 30 -1.1 50 50 SSE 7 11 29.84 1011 10 16 0.00 0.00
3:53 am 03:53 Clear 47 8.3 28 -2.2 48 48 SE 10 17 29.82 1010 10 16 0.00 0.00
4:53 am 04:53 Clear 45 7.2 28 -2.2 52 52 ESE 7 11 29.83 1010 10 16 0.00 0.00
5:53 am 05:53 Clear 43 6.1 28 -2.2 56 56 S 3 6 29.84 1011 10 16 0.00 0.00
6:53 am 06:53 Clear 39 3.9 32 0 76 76 N 7 11 29.87 1012 10 16 0.00 0.00
7:53 am 07:53 Sunny 44 6.7 32 0 63 63 NNW 5 7 29.88 1012 10 16 0.00 0.00
8:53 am 08:53 Sunny 55 12.8 28 -2.2 35 35 NNW 3 6 29.90 1012 10 16 0.00 0.00
9:53 am 09:53 Sunny 66 18.9 29 -1.7 25 25 VRB 3 6 29.90 1013 10 16 0.00 0.00
10:53 am 10:53 Sunny 74 23.3 25 -3.9 16 16 WSW 8 13 29.89 1012 10 16 0.00 0.00
11:53 am 11:53 Sunny 78 25.6 24 -4.4 13 13 WSW 13 20 29.89 1012 10 16 0.00 0.00
12:53 pm 12:53 Sunny 80 26.7 24 -4.4 13 13 NW 14 22 29.89 1012 10 16 0.00 0.00
1:53 pm 13:53 Sunny 83 28.3 23 -5 11 11 NW 18 30 29.86 1011 10 16 0.00 0.00
2:53 pm 14:53 Sunny 84 28.9 22 -5.6 10 10 NNW 9 15 29.84 1011 10 16 0.00 0.00
3:53 pm 15:53 Sunny 85 29.4 24 -4.4 11 11 NW 14 22 29.82 1010 10 16 0.00 0.00
4:53 pm 16:53 Sunny 85 29.4 24 -4.4 11 11 VRB 3 6 29.80 1009 10 16 0.00 0.00
5:53 pm 17:53 Sunny 85 29.4 23 -5 10 10 NW 5 7 29.79 1009 10 16 0.00 0.00
6:53 pm 18:53 Sunny 73 23 18 -8 12 12 W 15 24 29.74 1007 10 16 0.00 0.00
7:53 pm 19:53 Sunny 83 28.3 25 -3.9 12 12 ESE 5 7 29.77 1008 10 16 0.00 0.00
8:53 pm 20:53 Clear 74 23.3 31 -0.6 20 20 E 8 13 29.77 1008 10 16 0.00 0.00
9:53 pm 21:53 Clear 69 20.6 32 0 25 25 E 8 13 29.78 1008 10 16 0.00 0.00
10:53 pm 22:53 Clear 65 18.3 33 0.6 31 31 ESE 8 13 29.79 1009 10 16 0.00 0.00
11:53 pm 23:53 Clear 65 18.3 31 -0.6 28 28 E 6 9 29.79 1009 10 16 0.00 0.00

Powered by AerisWeather